Location: Newark
(35.2672°N, 80.7344°W)
Time: 11:49:37
(UTC+00:00)

SR - Pass Details

Date: 29 January 2020
Orbit: 575 x 881 km, 66.7° (Epoch: 19 February)

Event Time Altitude Azimuth Distance (km) Brightness Sun altitude
Exits shadow 11:10:27 - 340° (NNW) 3,262 ? -15.4°
Reaches altitude 10° 11:12:54 10° 348° (NNW) 2,374 ? -14.9°
Maximum altitude 11:17:58 39° 56° (ENE) 1,121 ? -13.9°
Drops below altitude 10° 11:22:37 10° 125° (SE) 2,171 ? -12.9°
Sets 11:24:58 0° 134° (SE) 3,035 ? -12.5°
